Regional Weather Roundup
Issued by NWS

Home | Current Version | Previous Version | Graphics & Text | Print | Product List | Glossary On
Versions: 1 2 3 4 5 6 7 8 9 10 11 12 13 14 15 16 17 18 19 20 21 22 23 24 25 26 27 28 29 30 31 32 33 34 35 36 37 38 39 40 41 42 43 44 45 46 47 48 49 50
000
ASUS43 KDMX 220001
RWRIA

WEATHER ROUNDUP FOR IOWA
NATIONAL WEATHER SERVICE DES MOINES IA
700 PM CDT SUN MAY 21 2017

NOTE: "FAIR" INDICATES FEW OR NO CLOUDS BELOW 12,000 FEET WITH NO
SIGNIFICANT WEATHER AND/OR OBSTRUCTIONS TO VISIBILITY.

* - THESE STATIONS ARE NOT NWS STATIONS...THUS NOT UNDER NWS
QUALITY CONTROL.  THEY ALSO DO NOT REPORT WEATHER SUCH
AS PRECIPITATION OR FOG.

IAZ001>003-012>014-020>022-031>034-043>046-220100-
   NORTHWEST IOWA

CITY           SKY/WX    TMP DP  RH WIND       PRES   REMARKS
CARROLL *      MOSUNNY   57  45  62 NW18      30.04R
CHEROKEE *     SUNNY     57  44  61 NW10G16   30.02F
DENISON *      MOSUNNY   59  43  55 NW12G23   30.06S
LE MARS *      SUNNY     59  43  55 NW10G16   30.03S
ORANGE CITY *  SUNNY     57  45  62 NW13      30.01S
SHELDON *      SUNNY     57  43  58 NW14        N/A
SIOUX CITY     SUNNY     62  45  53 NW10      30.03S
6HR MIN TEMP:  52; 6HR MAX TEMP:  63;

SPENCER        MOSUNNY   56  42  59 NW14G24   29.99S
6HR MIN TEMP:  47; 6HR MAX TEMP:  56;

STORM LAKE *   MOSUNNY   54  43  66 NW17      30.02S
$$

IAZ055>058-069>071-079>083-090>094-220100-
   SOUTHWEST IOWA

CITY           SKY/WX    TMP DP  RH WIND       PRES   REMARKS
ATLANTIC *     SUNNY     61  45  55 NW15      30.05S
AUDUBON *      SUNNY     59  45  58 NW14      30.06S
CLARINDA *     MOSUNNY   66  43  42 NW10G21   30.08S
COUNCIL BLFS * SUNNY     64  43  45 NW8G15    30.05S
CRESTON *      MOSUNNY   61  45  55 NW20G28   30.06S
HARLAN  *      SUNNY     61  45  55 NW16G23   30.08S
LAMONI         SUNNY     62  46  55 W13       30.06S
6HR MIN TEMP:  55; 6HR MAX TEMP:  63;

RED OAK *      MOSUNNY   66  43  42 NW10      30.06R
SHENANDOAH *   SUNNY     66  41  39 NW13G20   30.07R
$$

IAZ047>049-059>061-072>074-084-220100-
   CENTRAL IOWA

CITY           SKY/WX    TMP DP  RH WIND       PRES   REMARKS
AMES           CLOUDY    54  43  66 W13       30.03S
6HR MIN TEMP:  49; 6HR MAX TEMP:  54;

ANKENY *       CLOUDY    55  43  62 NW10      30.05S
BOONE *        CLOUDY    54  45  71 W14G20    30.02S
DES MOINES     PTSUNNY   59  43  55 NW17      30.04S
6HR MIN TEMP:  54; 6HR MAX TEMP:  60;

GRINNELL*      CLOUDY    52  42  68 W13       30.05S
MARSHALLTOWN   CLOUDY    51  43  74 W10       30.02S
6HR MIN TEMP:  48; 6HR MAX TEMP:  52; 6HR PCP: TRACE;

NEWTON *       CLOUDY    54  43  66 W13       30.03F
PELLA *        PTSUNNY   56  43  60 NW9       30.06S
PERRY *        PTSUNNY   57  46  67 NW14G20   30.05R
$$

IAZ004>006-015-016-023>025-035-036-220100-
   NORTH CENTRAL IOWA

CITY           SKY/WX    TMP DP  RH WIND       PRES   REMARKS
ALGONA *       CLOUDY    52  43  71 NW10      29.99S
CLARION *      CLOUDY    50  45  81 W17G25    30.00S
ESTHERVILLE    CLOUDY    52  43  71 NW21      29.98R
6HR MIN TEMP:  45; 6HR MAX TEMP:  52;

FORT DODGE *   CLOUDY    54  43  66 W10G20    30.02S
MASON CITY     CLOUDY    49  41  74 W15       29.99R
6HR MIN TEMP:  46; 6HR MAX TEMP:  50;

FOREST CITY *  CLOUDY    50  36  57 W13       29.98S
WEBSTER CITY * CLOUDY    54  43  66 W15       30.00S
IOWA FALLS *   CLOUDY    51  44  78 W12       30.02S
$$

IAZ007>011-017>019-026>030-037>042-050>054-066-220100-
   NORTHEAST IOWA

CITY           SKY/WX    TMP DP  RH WIND       PRES   REMARKS
CEDAR RAPIDS   CLOUDY    50  43  77 W17       30.01F
6HR MIN TEMP:  48; 6HR MAX TEMP:  52;

CHARLES CITY * CLOUDY    50  43  76 W16       29.98R
CLINTON *      CLOUDY    51  43  74 W18       30.02S
DECORAH *      CLOUDY    46  41  81 VRB6G17   29.94S
DUBUQUE        CLOUDY    49  41  74 W16       29.98S
6HR MIN TEMP:  47; 6HR MAX TEMP:  50;

MONTICELLO *   CLOUDY    50  43  76 W15       30.00S
OELWEIN *      CLOUDY    50  45  81 W17       29.98S
WATERLOO       CLOUDY    50  41  71 W14G24    29.99S
6HR MIN TEMP:  48; 6HR MAX TEMP:  52;

$$

IAZ064-065-067-068-078-220100-
   EAST CENTRAL IOWA

CITY           SKY/WX    TMP DP  RH WIND       PRES   REMARKS
DAVENPORT      CLOUDY    51  43  74 W12       30.03S
6HR MIN TEMP:  50; 6HR MAX TEMP:  52;

IOWA CITY      CLOUDY    54  41  61 W10       30.04F
6HR MIN TEMP:  50; 6HR MAX TEMP:  55;

MT. PLEASANT * CLOUDY    55  41  60 NW12G17   30.06S
MUSCATINE *    CLOUDY    55  41  58 NW12      30.05S
QUAD CITIES    CLOUDY    54  40  59 W17G24    30.04R
6HR MIN TEMP:  52; 6HR MAX TEMP:  55;

$$

IAZ062-063-075>077-085>089-095>099-220100-
   SOUTHEAST IOWA

CITY           SKY/WX    TMP DP  RH WIND       PRES   REMARKS
BURLINGTON     CLOUDY    57  45  64 W8        30.05S
6HR MIN TEMP:  52; 6HR MAX TEMP:  57;

FAIRFIELD *    CLOUDY    55  43  62 W8        30.05S
FORT MADISON * CLOUDY    57  46  67 W6        30.07R
KEOKUK *       CLOUDY    59  45  58 MISG      30.05S
OSKALOOSA *    CLOUDY    55  44  66 W13       30.05F
OTTUMWA        CLOUDY    56  43  61 NW8       30.05S
6HR MIN TEMP:  50; 6HR MAX TEMP:  58;

WASHINGTON *   CLOUDY    55  43  62 W9        30.06S
$$

ABBREVIATIONS USED IN REMARKS
   TC - TEMPERATURES IN CELSIUS
  WCI - WIND CHILL INDEX
   HX - HEAT INDEX
  VSB - VISIBILITY
$$





USA.gov is the U.S. government's official web portal to all federal, state and local government web resources and services.